Regional Weather Roundup
Issued by NWS Newport/Morehead, NC

Current Version | Previous Version | Text Only | Print | Product List | Glossary Off
Versions: 1 2 3 4 5 6 7 8 9 10 11 12 13 14 15 16 17 18 19 20 21 22 23 24 25 26 27 28 29 30 31 32 33 34 35 36 37 38 39 40 41 42 43 44 45 46 47 48 49 50
000 ASUS42 KMHX 051813 RWRMHX WEATHER ROUNDUP FOR EASTERN NORTH CAROLINA NATIONAL WEATHER SERVICE NEWPORT/MOREHEAD CITY NC 200 PM EDT THU MAY 05 2016 NOTE: "FAIR" INDICATES FEW OR NO CLOUDS BELOW 12,000 FEET WITH NO SIGNIFICANT WEATHER AND/OR OBSTRUCTIONS TO VISIBILITY NCZ015>017-031-032-045>047-102-103-051900- NORTH COAST CITY SKY/WX TMP DP RH WIND PRES REMARKS EDENTON CLOUDY 58 55 89 NE10 29.55S ELIZABETH CITY CLOUDY 55 50 83 NE22G29 29.55S KITTY HAWK CLOUDY 56 50 80 N12G23 29.52S MANTEO CLOUDY 55 52 88 NE20G26 29.53S $$ NCZ045>047-081-094-103-104-051900- CENTRAL COAST CITY SKY/WX TMP DP RH WIND PRES REMARKS FRISCO CLOUDY 58 54 86 NE13G25 29.50R SWANQUARTER NOT AVBL $$ NCZ095-097-098-100-101-051900- SOUTHERN COAST CITY SKY/WX TMP DP RH WIND PRES REMARKS BEAUFORT PTSUNNY 66 56 70 NE10G20 29.49S CEDAR ISLAND NOT AVBL JACKSONVILLE TSTM 64 57 78 CALM 29.48R PINEY ISLAND CLOUDY N/A N/A N/A NE12 29.50F WILMINGTON CLOUDY 67 60 78 NE7 29.47F THUNDER $$ NCZ011>013-027>030-043-044-078>080-089-090>093-098-051900- COASTAL PLAIN CITY SKY/WX TMP DP RH WIND PRES REMARKS AHOSKIE LGT RAIN 53 52 94 NE10 29.56S CLINTON LGT RAIN 56 55 98 W8 29.56R ELIZABETHTOWN PTSUNNY 63 50 62 NW18G32 29.55R GOLDSBORO LGT RAIN 59 59 100 N9 29.51S GREENVILLE LGT RAIN 57 55 94 NE7 29.57F HAVELOCK CLOUDY 67 57 70 E12 29.50F KENANSVILLE CLOUDY 57 52 84 N10 29.51S KINSTON LGT RAIN 59 57 94 N9 29.52S NEW BERN CLOUDY 64 54 69 N9 29.51F RICHLANDS CLOUDY 63 58 83 N7 29.47F ROCKY MOUNT LGT RAIN 56 54 93 E5 29.55R FOG WASHINGTON CLOUDY 56 54 92 N5 29.53F FOG WHITEVILLE NOT AVBL $$ AMZ130-135-150-152-154-156-158-170-250-252-270-ANZ085-086-088-633-658-670-051900- MARINE OBSERVATIONS STATION/POSITION TIME TEMP WIND PRES WAVE SWELL AIR SEA DIR/SP/G HT/PER HT/PER (UTC) (F) (DEG/KT/KT) (MB) (FT/S) (FT/S) CHESAPEAKE LIGHT 1700 50 30/ 26/ 28 1001.5 64 E VA BEACH 1750 51 52 10/ 21/ 25 999.0 7/ 7 DUCK 1700 52 61 20/ 23/ 26 999.6 2 E DUCK 1711 59 N/A 6/ 6 OREGON INLET 1700 54 61 10/ 19/ 24 999.0 13E OREGON INLT 1800 55 N/A 7/ 6 3/14 HATTERAS CG 1700 58 68 10/ 22/ 26 998.3 DIAMOND BUOY 1750 59 76 30/ 17/ 21 998.6 6/ 6 CAPE LOOKOUT 1700 63 40/ 13/ 15 998.4 BEAUFORT LAB 1700 65 67 10/ 6/ 14 997.8 30 SE NEW RVR IN 1725 72 N/A 4/ 7 27 SE WRIGHTSVLE 1708 66 72 70/ 4/ 10 999.1 5 SE WRIGHTSVLE 1708 66 70 130/ 10/ 14 999.3 225 S CAPE HAT 1750 73 74 260/ 19/ 23 1000.8 6/ 8 2/14 41 SE CHARLESTON 1750 67 74 280/ 21/ 27 1001.4 5/ 6 $$

USA.gov is the U.S. government's official web portal to all federal, state and local government web resources and services.